DECAYED

STARLINK-30190, 57471 (Decayed)

Orbit data source: Space-Track

STARLINK-30190, 57471 was a payload satellite owned by SpaceX/Seattle (US) in LEO that was launched on Fri, 28 Jul 2023 UTC via an FALCON 9 launch vehicle from the Air Force Eastern Test Range (AFETR). Payload-class satellites include a variety of spacecraft equipped with specific instruments for various scientific and technological missions. These include communications satellites like Starlink; space stations such as the ISS; scientific satellites like the Hubble; Earth observation satellites from companies like Planet Labs, Umbra, and HawkEye 360; GPS; miniature CubeSats for education and research; and military/defense satellites.

Not visible in the next 10 days
Identifier
57471, 2023-107Q
Orbit
Decayed
Country
Flag of USUS
Related business
Manufacturer
SpaceX/Seattle
Mission
Decayed Commercial Communications
Bus & Motor
STARLINK V2M, Unknown motor
Mass
730 kg wet, ~700 kg dry
Launch date (UTC)
2023-07-28 (3 years ago)
Launch vehicle
FALCON 9
Launch site
Air Force Eastern Test Range (AFETR)
Object type
Payload
Rocket body
Debris
Shape & HBR
Box + 2 Pan, 17.7 m
Radar Cross Section
33.884 m², Large (>1 m²)

Expand to show TLE details & history
Last TLE update: 6 months ago

TLE from 6 months ago
0 STARLINK-30190
1 57471U 23107Q   25344.51504134  .02186879  54197-2  16443-2 0  9997
2 57471  42.9647  18.4450 0018116  76.4397 283.8503 16.15280163132685
Epoch: 2025-12-10T12:21Z
TLE epoch observation values (Epoch: 2025-12-10T12:21:39.571Z)
Latitude
-0.00004°
Longitude
113.54581°
Altitude
229.315 km
Speed
7.773 km/s
True Right ascension
01h 13m 46s
True Declination
0° 00' 00"
Sunlit
Object was in full shadow at epoch
Visualization orbit readout
Latitude
Unknown
Longitude
Unknown
Altitude
Unknown
Speed
Unknown
Apparent Right ascension
Unknown
Apparent Declination
Unknown
Sunlit
N/A
Visualization observer readout
Local Sidereal Time
21:31:38
Azimuth
Unknown
Elevation
Unknown
Doppler factor
Unknown
Orbital elements
Apogee altitude
246.402 km
Perigee altitude
222.443 km
Semi-major axis
6,612.56 km
Eccentricity
0.00181
Inclination
42.9647°
RAAN
18.445°
Arg. of periapsis
76.4397°
True anomaly
283.64863°
Mean anomaly
283.8503°
Eccentric anomaly
283.74948°
Mean motion
4.03635 °/min
Orbital period
89.19 mins
BSTAR
0.0016443
Loading maneuver chart data...
Computing Atmospheric mass density...
Loading historical data...
Loading historical data...
Loading historical data...
Loading historical data...
Loading historical data...
Loading historical data...
Loading historical data...

Documentation

Showing up to 5 results
|